Temperature
11 11 11 11 11 11 12 12 12 12 13 13 14 14 14 14 14 14 14 14 15 15 15 15 16 16 16 16 16 16 16 16 16 16 16 17 17 17
11 11 11 11 11 11 11 11 12 12 12 12 13 13 14 14 14 14 14 14 14 14 15 15 15 15 16 16 16 16 16 16 16 16 16 16 16 17
10 10 11 11 11 11 11 11 11 12 12 12 12 13 13 13 13 13 13 13 14 14 14 15 15 15 15 15 15 16 16 16 16 16 16 16 16 16
10 10 10 10 10 10 10 10 11 11 11 11 12 12 12 12 13 13 13 13 13 14 14 15 15 15 15 15 15 15 15 16 16 16 16 16 16 16
10 10 10 10 10 10 10 10 10 11 11 11 11 11 12 12 12 13 13 13 13 13 14 14 14 15 15 15 15 15 15 15 15 16 16 16 16 16
10 10 10 10 10 10 10 10 10 10 10 10 11 11 11 12 12 13 13 13 13 13 13 14 14 14 14 15 15 15 15 15 15 16 16 16 16 16
10 10 10 10 10 10 10 10 10 10 10 10 10 11 11 12 12 12 12 13 13 13 13 13 14 14 14 14 15 15 15 15 15 15 16 16 16 16
10 10 10 9 10 10 10 10 10 10 10 10 10 10 11 11 11 12 12 12 12 13 13 13 13 14 14 14 15 15 15 15 15 15 15 15 16 16
10 9 9 9 9 10 10 9 10 9 9 9 9 10 10 11 11 11 11 11 11 12 12 12 13 13 14 14 14 15 15 15 15 15 15 15 15 15
10 9 9 9 9 9 9 9 9 9 9 9 9 10 10 10 10 10 10 11 11 11 12 12 12 13 13 13 14 14 15 15 15 15 15 15 15 15
9 9 9 9 9 9 9 9 9 9 9 9 9 9 10 10 10 10 10 10 10 11 11 11 12 12 12 13 13 14 14 14 14 15 15 15 15 15
9 9 9 9 9 9 9 9 9 9 9 9 9 9 9 9 10 9 9 9 10 10 11 11 12 12 12 12 13 13 13 14 14 14 14 15 15 15
9 9 9 9 9 9 8 8 8 8 8 8 8 9 9 9 9 10 10 10 10 10 11 11 11 11 12 12 12 12 13 13 13 14 14 14 14 14
9 9 8 8 8 8 8 8 8 8 8 8 8 8 8 9 9 9 10 10 10 10 11 11 11 11 11 11 12 12 12 12 13 13 13 13 13 14
9 9 8 8 8 8 8 8 8 8 8 7 7 8 8 9 9 9 10 10 10 10 10 10 10 11 11 11 12 12 12 12 12 13 13 13 13 13
8 8 8 8 8 8 8 8 8 8 8 7 7 8 8 9 9 9 9 9 10 10 10 10 10 10 11 11 11 12 12 12 12 12 12 12 12 13
8 8 8 8 8 8 8 8 8 8 8 8 8 8 8 8 9 9 9 9 9 10 10 10 10 10 10 11 11 11 12 12 12 12 12 12 12 12
9 9 8 8 8 8 8 8 8 8 8 8 8 8 8 8 8 9 9 9 9 10 10 10 10 10 10 10 11 11 11 11 12 12 12 12 12 12
9 9 8 8 8 8 8 8 8 8 8 8 8 8 8 8 8 8 9 9 9 9 10 10 10 10 10 10 10 11 11 11 11 11 11 12 12 12
9 9 8 8 8 8 8 8 8 8 8 8 8 8 8 8 8 8 9 9 9 9 9 10 10 10 10 10 10 11 11 11 11 11 11 11 11 11
9 9 9 9 9 9 9 9 9 9 8 8 8 8 8 8 8 8 9 9 9 9 9 9 10 10 10 10 10 10 10 10 11 11 11 11 11 10
9 9 9 9 9 9 9 8 8 9 8 8 8 8 8 8 8 8 9 9 9 9 9 9 10 10 10 10 10 10 10 10 10 10 10 11 11 11
9 9 9 9 9 8 8 8 8 8 9 8 8 8 8 8 8 9 9 9 9 9 9 9 9 9 9 9 10 10 10 10 10 10 10 10 11 11
Wind_Speed
7 7 6 6 6 6 5 5 6 7 7 6 3 2 2 4 5 6 7 10 13 16 17 18 21 24 27 29 31 32 32 32 32 31 31 30 29 29
7 8 7 6 6 6 6 6 6 7 8 6 5 5 4 4 5 6 7 9 12 16 18 19 21 23 25 27 29 30 31 31 31 31 31 31 30 29
8 8 8 8 7 6 6 6 6 6 8 7 6 5 5 5 4 5 8 9 10 15 18 20 21 22 23 25 27 29 30 30 31 31 31 31 31 30
8 9 8 8 8 7 7 7 7 7 7 9 7 6 7 7 6 6 6 9 9 13 17 19 21 22 23 24 26 28 29 30 30 31 31 31 30 30
9 9 9 9 9 7 8 8 7 9 7 7 8 6 6 6 6 7 7 5 8 11 14 17 19 21 23 24 25 27 28 30 30 31 31 31 31 30
9 9 9 9 9 9 8 8 8 8 8 8 8 7 7 7 6 6 6 5 6 7 8 10 13 18 20 22 24 25 27 28 29 30 30 31 30 30
8 9 10 11 12 10 10 7 7 6 7 7 8 7 7 6 5 4 5 4 5 5 5 5 6 7 11 17 21 24 26 27 28 29 29 30 30 30
9 9 10 11 13 15 16 15 12 10 9 8 8 8 7 6 5 5 4 4 4 3 4 5 4 5 6 9 16 21 24 25 27 28 28 28 28 28
10 9 12 13 11 8 10 15 16 17 16 11 11 11 9 7 6 6 6 6 5 4 3 4 3 4 3 5 12 18 21 23 24 25 26 27 27 27
11 11 11 11 13 10 9 9 9 10 13 13 12 13 12 9 7 7 7 8 7 5 5 4 3 2 1 1 6 13 18 20 22 23 24 24 24 25
11 11 11 10 11 11 8 9 9 9 12 15 15 15 16 14 9 5 6 6 7 6 4 4 3 2 1 1 1 7 14 18 20 20 21 22 22 21
8 9 11 10 9 7 7 8 9 9 9 10 9 12 13 13 14 11 9 9 7 6 5 5 4 3 2 1 1 2 6 11 16 18 20 21 23 16
8 7 6 4 6 8 8 8 10 9 8 9 9 9 9 9 10 11 11 11 10 8 4 4 4 4 3 2 1 1 3 4 7 10 17 22 23 17
8 8 6 4 6 9 9 11 12 10 8 9 9 9 9 9 9 10 11 12 10 10 7 5 4 5 4 4 3 2 2 4 5 6 8 15 16 15
9 11 11 12 11 11 15 16 12 9 9 10 10 10 8 8 8 8 9 10 10 11 11 8 7 6 5 4 4 4 3 3 5 7 8 9 8 9
9 10 13 16 14 14 12 10 9 10 10 10 9 9 7 7 7 7 7 7 7 8 9 9 9 9 7 6 6 6 5 5 7 7 8 7 8 10
5 7 9 9 8 8 9 9 9 9 10 10 10 9 8 7 7 6 7 7 8 8 7 6 7 6 7 6 6 7 7 6 7 8 8 7 7 8
4 8 10 10 9 9 8 8 8 9 9 9 9 9 8 8 7 7 7 7 8 8 7 7 6 5 3 1 4 8 8 7 8 9 8 8 8 7
6 10 11 10 9 8 8 8 8 8 7 8 8 8 8 8 7 7 7 7 8 7 7 7 8 8 9 7 4 5 8 8 9 8 8 6 8 9
9 10 10 9 9 8 8 8 7 7 7 7 8 8 8 8 8 8 8 8 8 7 7 7 9 10 10 8 6 5 8 10 10 10 8 5 5 6
9 8 8 8 8 7 7 7 7 7 7 7 7 8 8 8 8 8 8 10 9 8 9 9 9 10 6 5 6 5 5 6 9 8 9 8 6 6
9 8 7 7 7 7 7 7 7 7 7 7 7 7 8 8 9 9 8 8 8 8 9 7 8 8 7 8 8 8 7 5 6 11 8 4 6 9
7 7 7 7 7 6 6 7 8 7 6 7 7 7 7 7 8 8 9 9 8 8 8 8 8 8 8 8 8 8 10 9 6 6 4 10 4 4
Wind_Direction
269 268 260 267 271 268 267 268 274 283 285 286 278 258 238 226 212 217 237 240 236 233 232 231 228 223 218 215 213 213 213 213 214 214 214 214 214 216
257 260 265 267 271 275 272 266 261 267 276 284 284 276 275 271 227 228 249 249 243 237 234 231 227 224 221 217 214 213 213 213 212 212 213 213 213 215
264 264 258 256 260 269 274 272 266 262 269 276 277 281 279 272 260 249 260 250 248 241 236 234 229 225 223 219 216 214 213 213 213 212 212 212 213 215
265 265 266 265 255 254 262 269 270 270 269 274 276 274 270 265 251 237 247 252 247 242 236 233 228 225 223 221 219 216 214 213 213 212 212 211 212 214
271 268 265 263 263 255 254 260 267 270 267 268 271 266 263 262 261 252 247 242 253 251 237 231 226 223 221 219 218 217 214 212 211 211 211 212 213 215
273 270 267 262 260 258 258 253 257 264 270 270 269 266 263 257 251 243 249 237 242 246 240 226 222 221 221 218 216 215 213 211 209 209 211 212 214 215
286 280 273 267 258 255 259 257 262 263 267 269 269 268 263 262 263 255 255 251 241 233 235 224 215 217 216 219 217 215 212 211 210 209 210 211 212 213
283 280 280 273 261 246 242 244 245 253 260 266 272 272 276 284 288 286 278 269 263 237 229 239 220 220 215 213 212 210 209 208 208 208 208 209 210 210
276 277 280 280 284 269 249 242 243 244 242 249 260 265 272 281 298 298 291 284 276 274 259 255 238 232 229 234 212 205 204 204 204 204 204 205 205 206
268 267 267 269 274 273 273 263 252 248 241 240 244 251 256 263 267 274 277 279 271 255 230 241 238 238 239 232 212 202 200 198 198 199 199 199 200 201
270 271 269 267 263 255 256 261 263 262 259 249 235 237 239 243 246 263 268 266 268 259 225 214 212 213 222 250 216 199 198 196 195 195 194 192 190 189
277 275 273 269 262 241 247 259 264 267 273 277 261 251 247 244 235 233 242 251 256 259 227 200 197 179 192 215 185 172 186 191 189 187 185 181 175 173
285 288 290 280 252 241 247 258 264 274 279 275 269 258 249 242 237 229 224 230 238 243 226 196 198 188 177 169 173 174 172 170 174 176 177 173 172 170
276 282 288 279 258 254 254 256 261 266 266 264 262 257 247 242 237 231 224 221 223 232 230 216 211 199 177 170 176 169 165 163 163 162 163 167 169 171
265 278 287 277 269 262 253 251 253 252 251 253 255 255 249 244 240 236 233 227 223 225 225 218 215 207 199 184 167 166 161 165 166 160 161 166 165 162
261 274 272 263 255 255 262 252 239 240 242 248 253 255 252 247 242 234 233 224 224 228 222 211 206 204 209 198 173 176 172 169 170 164 158 161 164 169
318 288 281 274 264 254 249 246 240 234 237 242 248 251 251 248 243 233 231 227 222 221 215 204 200 201 207 195 183 181 173 167 169 163 159 161 169 173
278 274 275 275 272 268 263 259 250 242 240 238 238 243 246 246 243 235 229 227 225 220 213 198 179 172 173 203 192 178 175 170 166 169 165 162 171 177
247 263 267 269 271 270 268 266 260 250 241 240 239 240 241 242 239 235 228 224 223 221 210 195 186 188 196 198 193 191 174 166 163 171 174 164 169 174
243 256 264 269 270 270 269 267 262 255 245 238 237 237 235 236 237 234 227 221 220 218 212 199 196 197 201 189 170 179 181 169 169 172 168 142 117 111
268 268 269 272 273 271 270 267 262 254 246 239 237 236 232 230 232 232 227 222 217 213 212 207 201 190 181 157 150 154 158 163 168 167 161 153 147 149
269 277 280 278 278 275 269 267 266 258 249 242 239 235 231 229 230 229 226 221 214 212 212 202 185 181 182 185 176 162 150 129 104 114 106 106 161 171
275 281 284 284 278 275 269 265 267 266 257 247 241 235 231 229 227 227 224 219 211 209 204 194 186 185 189 188 175 162 157 152 146 133 77 26 59 131
Height
1514 1514 1513 1513 1513 1513 1514 1514 1514 1511 1510 1509 1509 1508 1508 1507 1506 1505 1506 1506 1507 1508 1510 1512 1515 1519 1523 1528 1533 1538 1543 1548 1553 1557 1562 1566 1571 1575
1510 1510 1509 1509 1509 1509 1509 1509 1509 1508 1506 1505 1505 1505 1504 1503 1502 1501 1501 1501 1501 1502 1503 1505 1507 1511 1515 1520 1524 1529 1534 1540 1544 1549 1554 1559 1564 1568
1506 1505 1505 1504 1504 1504 1504 1504 1504 1503 1502 1501 1501 1500 1499 1499 1498 1497 1496 1496 1496 1496 1497 1499 1500 1503 1507 1511 1516 1521 1526 1531 1536 1541 1546 1551 1556 1561
1502 1501 1500 1500 1499 1498 1498 1498 1498 1498 1497 1495 1495 1495 1494 1494 1493 1492 1491 1491 1490 1490 1491 1492 1494 1496 1499 1503 1507 1512 1517 1522 1527 1532 1538 1544 1549 1554
1496 1496 1495 1494 1493 1493 1493 1492 1492 1493 1492 1491 1490 1490 1490 1489 1488 1487 1487 1486 1485 1485 1485 1486 1487 1489 1492 1496 1499 1504 1509 1514 1519 1524 1530 1535 1541 1546
1491 1490 1489 1488 1488 1487 1487 1487 1487 1487 1486 1486 1485 1484 1484 1484 1484 1483 1481 1481 1480 1480 1480 1480 1482 1483 1486 1489 1492 1496 1500 1505 1510 1516 1522 1527 1533 1538
1485 1484 1483 1482 1482 1481 1481 1481 1481 1481 1480 1480 1480 1479 1479 1479 1479 1478 1477 1476 1475 1475 1475 1475 1476 1477 1479 1482 1485 1488 1493 1498 1503 1509 1514 1520 1525 1531
1479 1477 1476 1476 1475 1475 1474 1474 1475 1475 1474 1474 1474 1474 1474 1474 1474 1473 1473 1472 1471 1471 1471 1471 1471 1472 1473 1475 1478 1481 1485 1490 1495 1501 1507 1512 1518 1524
1473 1471 1469 1469 1469 1469 1468 1467 1467 1467 1468 1468 1467 1467 1467 1468 1468 1468 1467 1467 1466 1466 1467 1465 1466 1466 1468 1469 1472 1475 1478 1483 1488 1493 1499 1505 1510 1516
1467 1465 1464 1463 1462 1462 1461 1461 1460 1460 1460 1460 1460 1460 1461 1462 1463 1463 1462 1462 1461 1462 1462 1461 1461 1461 1462 1464 1466 1469 1472 1476 1481 1486 1492 1497 1503 1509
1462 1460 1459 1457 1456 1455 1455 1454 1453 1453 1453 1453 1453 1453 1454 1455 1456 1457 1457 1457 1456 1456 1457 1457 1457 1457 1458 1459 1460 1463 1466 1470 1475 1480 1485 1491 1497 1503
1457 1455 1454 1452 1451 1450 1449 1448 1447 1446 1447 1446 1446 1446 1446 1447 1448 1449 1450 1451 1451 1451 1451 1453 1452 1454 1454 1454 1456 1458 1461 1465 1469 1474 1479 1484 1490 1495
1451 1450 1448 1446 1445 1444 1442 1441 1440 1440 1439 1439 1438 1438 1439 1439 1440 1441 1442 1443 1444 1445 1447 1448 1448 1449 1450 1451 1452 1454 1457 1460 1464 1468 1473 1478 1484 1489
1446 1444 1442 1440 1439 1437 1436 1435 1434 1433 1432 1431 1431 1431 1431 1432 1433 1434 1435 1436 1437 1439 1442 1444 1444 1445 1446 1447 1448 1451 1453 1456 1459 1463 1468 1473 1479 1484
1440 1438 1436 1434 1432 1430 1429 1428 1427 1426 1425 1425 1424 1424 1425 1426 1427 1427 1428 1430 1431 1433 1435 1437 1439 1441 1442 1443 1444 1447 1449 1452 1455 1459 1464 1468 1473 1479
1434 1432 1430 1428 1426 1424 1422 1421 1420 1419 1418 1418 1417 1418 1419 1420 1420 1421 1422 1423 1425 1426 1429 1431 1434 1436 1438 1439 1441 1443 1446 1449 1452 1456 1460 1465 1470 1476
1428 1426 1424 1422 1420 1418 1416 1415 1414 1413 1412 1411 1411 1412 1413 1413 1414 1415 1417 1418 1419 1420 1423 1425 1428 1431 1433 1435 1437 1439 1442 1445 1448 1452 1457 1461 1466 1472
1423 1420 1418 1416 1414 1412 1411 1409 1408 1407 1405 1405 1405 1406 1406 1407 1408 1409 1410 1412 1413 1415 1417 1420 1423 1426 1428 1430 1433 1435 1438 1441 1445 1450 1454 1458 1463 1469
1417 1414 1412 1410 1409 1407 1405 1403 1401 1400 1399 1399 1399 1399 1400 1400 1402 1403 1404 1405 1407 1409 1411 1414 1417 1419 1422 1425 1427 1431 1434 1437 1441 1446 1450 1455 1460 1466
1411 1409 1407 1405 1403 1401 1399 1397 1396 1394 1393 1392 1392 1392 1393 1394 1395 1396 1398 1399 1401 1404 1406 1408 1410 1413 1416 1420 1423 1427 1431 1434 1438 1442 1447 1452 1458 1463
1407 1404 1402 1400 1398 1396 1394 1392 1390 1389 1388 1387 1386 1386 1387 1388 1389 1390 1392 1393 1396 1398 1400 1402 1405 1409 1413 1417 1420 1423 1427 1431 1435 1439 1443 1448 1453 1458
1400 1398 1396 1394 1392 1390 1388 1386 1385 1384 1382 1381 1381 1381 1381 1382 1383 1384 1386 1388 1390 1392 1395 1398 1401 1405 1408 1411 1414 1418 1422 1427 1432 1436 1441 1445 1448 1452
1395 1393 1391 1388 1386 1384 1382 1381 1380 1378 1377 1376 1376 1376 1376 1377 1378 1379 1380 1382 1384 1387 1390 1393 1396 1400 1403 1407 1411 1414 1418 1422 1427 1432 1437 1442 1446 1452